SPSDE EPPO-EPPO

Flight info

Callsign SPSDE
Flight time 1h 2m
Altitude 1500
Route EPPOG EPPOY EPPOQ EPPBB EPPB EPPBP EPPKS EPKSE 5206N01731E 5157N01729E 5158N01702E 5205N01638E EPPOX EPPOJ EPPOI
Aircraft P28R/L-VGD/A

Departure

Time 2026-04-22 17:18
Airport Poznań-Ławica Airport (EPPO)

Arrival

Time 2026-04-22 18:21
Airport Poznań-Ławica Airport (EPPO)
Time Latitude Longitude Altitude Speed Heading
2026-04-22 17:09 52.41525 16.83749 282 ft 0 kts
2026-04-22 17:12 52.41539 16.83751 282 ft 7 kts
2026-04-22 17:12 52.41564 16.83889 282 ft 12 kts 75°
2026-04-22 17:12 52.41622 16.83969 282 ft 15 kts 36°
2026-04-22 17:12 52.41708 16.84027 282 ft 9 kts 20°
2026-04-22 17:13 52.41728 16.84039 282 ft 0 kts 20°
2026-04-22 17:16 52.41729 16.84039 282 ft 1 kts 17°
2026-04-22 17:16 52.41759 16.84058 282 ft 9 kts 21°
2026-04-22 17:17 52.41819 16.84075 283 ft 7 kts 331°
2026-04-22 17:17 52.41832 16.84031 283 ft 0 kts 288°
2026-04-22 17:17 52.41839 16.84000 283 ft 19 kts 287°
2026-04-22 17:18 52.41937 16.83483 299 ft 68 kts 283°
2026-04-22 17:18 52.42037 16.82698 620 ft 63 kts 286°
2026-04-22 17:18 52.42150 16.82007 851 ft 71 kts 288°
2026-04-22 17:18 52.42296 16.81161 1035 ft 86 kts 300°
2026-04-22 17:19 52.43268 16.80443 1448 ft 87 kts 18°
2026-04-22 17:19 52.44069 16.82263 1780 ft 105 kts 54°
2026-04-22 17:20 52.44862 16.84531 1771 ft 125 kts 51°
2026-04-22 17:20 52.45592 16.86545 1858 ft 123 kts 53°
2026-04-22 17:21 52.46051 16.87798 1719 ft 130 kts 53°
2026-04-22 17:21 52.46575 16.90739 1464 ft 133 kts 66°
2026-04-22 17:22 52.47659 16.92920 1394 ft 119 kts 39°
2026-04-22 17:22 52.48262 16.93897 1329 ft 123 kts 38°
2026-04-22 17:22 52.49436 16.95868 1404 ft 116 kts 42°
2026-04-22 17:23 52.49980 16.96857 1442 ft 117 kts 41°
2026-04-22 17:23 52.50950 16.99066 1532 ft 119 kts 57°
2026-04-22 17:23 52.51170 17.00373 1574 ft 124 kts 77°
2026-04-22 17:24 52.51090 17.01825 1627 ft 127 kts 91°
2026-04-22 17:24 52.51065 17.03221 1689 ft 123 kts 82°
2026-04-22 17:24 52.51096 17.04652 1735 ft 126 kts 80°
2026-04-22 17:24 52.51158 17.06089 1713 ft 130 kts 77°
2026-04-22 17:25 52.51257 17.07612 1579 ft 136 kts 78°
2026-04-22 17:25 52.51355 17.09159 1485 ft 136 kts 78°
2026-04-22 17:25 52.51454 17.10680 1457 ft 132 kts 78°
2026-04-22 17:25 52.51580 17.12168 1453 ft 131 kts 75°
2026-04-22 17:26 52.51720 17.13647 1450 ft 130 kts 74°
2026-04-22 17:26 52.51914 17.15077 1463 ft 125 kts 63°
2026-04-22 17:26 52.52337 17.16290 1517 ft 118 kts 53°
2026-04-22 17:26 52.52790 17.17451 1474 ft 124 kts 53°
2026-04-22 17:27 52.52955 17.18884 1443 ft 135 kts 89°
2026-04-22 17:27 52.52676 17.20351 1447 ft 138 kts 114°
2026-04-22 17:27 52.52223 17.21693 1412 ft 127 kts 113°
2026-04-22 17:27 52.51848 17.22908 1296 ft 115 kts 107°
2026-04-22 17:28 52.51625 17.24165 1062 ft 111 kts 97°
2026-04-22 17:28 52.51895 17.25074 989 ft 87 kts 15°
2026-04-22 17:28 52.52497 17.25269 899 ft 87 kts
2026-04-22 17:28 52.52942 17.24900 789 ft 72 kts 294°
2026-04-22 17:29 52.53076 17.24084 542 ft 76 kts 289°
2026-04-22 17:29 52.53202 17.23326 398 ft 60 kts 290°
2026-04-22 17:29 52.53286 17.22762 381 ft 45 kts 283°
2026-04-22 17:29 52.53373 17.22134 428 ft 65 kts 281°
2026-04-22 17:30 52.53423 17.21354 697 ft 69 kts 279°
2026-04-22 17:30 52.53474 17.20558 990 ft 76 kts 288°
2026-04-22 17:30 52.53482 17.19685 1328 ft 87 kts 246°
2026-04-22 17:30 52.52894 17.19187 1558 ft 111 kts 198°
2026-04-22 17:31 52.52089 17.19171 1804 ft 119 kts 156°
2026-04-22 17:31 52.51341 17.19830 1964 ft 131 kts 143°
2026-04-22 17:31 52.50613 17.20924 1869 ft 151 kts 130°
2026-04-22 17:31 52.49940 17.22280 1784 ft 153 kts 123°
2026-04-22 17:32 52.49272 17.23661 1535 ft 160 kts 126°
2026-04-22 17:32 52.48558 17.25013 1478 ft 151 kts 131°
2026-04-22 17:32 52.47690 17.25916 1437 ft 147 kts 158°
2026-04-22 17:32 52.46698 17.26114 1374 ft 148 kts 188°
2026-04-22 17:33 52.46017 17.25932 1364 ft 145 kts 195°
2026-04-22 17:33 52.44719 17.25644 1405 ft 142 kts 186°
2026-04-22 17:33 52.43745 17.25685 1457 ft 140 kts 178°
2026-04-22 17:33 52.42766 17.25786 1455 ft 140 kts 178°
2026-04-22 17:34 52.41802 17.25854 1459 ft 138 kts 179°
2026-04-22 17:34 52.40844 17.26059 1439 ft 139 kts 171°
2026-04-22 17:34 52.39900 17.26359 1428 ft 137 kts 171°
2026-04-22 17:34 52.38995 17.26156 1478 ft 131 kts 210°
2026-04-22 17:35 52.38294 17.25213 1463 ft 131 kts 235°
2026-04-22 17:35 52.37711 17.24057 1440 ft 132 kts 239°
2026-04-22 17:35 52.37187 17.22857 1394 ft 131 kts 244°
2026-04-22 17:35 52.36664 17.21680 1427 ft 129 kts 237°
2026-04-22 17:36 52.36024 17.20617 1432 ft 132 kts 228°
2026-04-22 17:36 52.35292 17.19649 1362 ft 136 kts 226°
2026-04-22 17:36 52.34569 17.18687 1357 ft 134 kts 228°
2026-04-22 17:36 52.33868 17.17713 1426 ft 132 kts 223°
2026-04-22 17:37 52.33042 17.17138 1534 ft 132 kts 194°
2026-04-22 17:37 52.32109 17.16945 1562 ft 137 kts 185°
2026-04-22 17:37 52.31190 17.17296 1552 ft 141 kts 151°
2026-04-22 17:37 52.30424 17.18258 1560 ft 140 kts 139°
2026-04-22 17:38 52.29646 17.19239 1537 ft 142 kts 141°
2026-04-22 17:38 52.28835 17.20167 1498 ft 146 kts 144°
2026-04-22 17:38 52.27981 17.21041 1524 ft 144 kts 148°
2026-04-22 17:38 52.27135 17.21901 1540 ft 144 kts 147°
2026-04-22 17:39 52.26278 17.22770 1523 ft 144 kts 147°
2026-04-22 17:39 52.25428 17.23648 1453 ft 148 kts 146°
2026-04-22 17:39 52.23764 17.25427 1481 ft 140 kts 144°
2026-04-22 17:40 52.22956 17.26331 1465 ft 141 kts 144°
2026-04-22 17:40 52.22138 17.27243 1419 ft 143 kts 144°
2026-04-22 17:40 52.21356 17.28233 1392 ft 141 kts 137°
2026-04-22 17:40 52.20703 17.29393 1412 ft 137 kts 128°
2026-04-22 17:41 52.20078 17.30576 1415 ft 137 kts 128°
2026-04-22 17:41 52.19417 17.31704 1431 ft 137 kts 135°
2026-04-22 17:41 52.18731 17.32776 1454 ft 136 kts 131°
2026-04-22 17:41 52.18193 17.34016 1486 ft 134 kts 119°
2026-04-22 17:42 52.17697 17.35299 1544 ft 135 kts 121°
2026-04-22 17:42 52.17110 17.36506 1578 ft 137 kts 125°
2026-04-22 17:42 52.16498 17.37732 1566 ft 141 kts 128°
2026-04-22 17:42 52.15864 17.38942 1568 ft 140 kts 125°
2026-04-22 17:43 52.15230 17.40184 1540 ft 145 kts 126°
2026-04-22 17:43 52.14562 17.41465 1454 ft 150 kts 127°
2026-04-22 17:43 52.13857 17.42724 1387 ft 151 kts 131°
2026-04-22 17:43 52.13102 17.43871 1402 ft 146 kts 138°
2026-04-22 17:44 52.12287 17.44858 1376 ft 145 kts 141°
2026-04-22 17:44 52.11656 17.46093 1353 ft 143 kts 122°
2026-04-22 17:44 52.10986 17.47280 1365 ft 144 kts 133°
2026-04-22 17:44 52.10323 17.48529 1314 ft 145 kts 126°
2026-04-22 17:45 52.09701 17.49766 1426 ft 136 kts 134°
2026-04-22 17:45 52.08925 17.50480 1557 ft 131 kts 174°
2026-04-22 17:45 52.08039 17.50383 1651 ft 122 kts 207°
2026-04-22 17:45 52.07315 17.49648 1698 ft 124 kts 216°
2026-04-22 17:46 52.06458 17.49446 1790 ft 132 kts 184°
2026-04-22 17:46 52.05504 17.49452 1731 ft 141 kts 185°
2026-04-22 17:46 52.04504 17.49437 1648 ft 148 kts 185°
2026-04-22 17:46 52.03470 17.49404 1553 ft 148 kts 185°
2026-04-22 17:47 52.02443 17.49379 1485 ft 146 kts 186°
2026-04-22 17:47 52.01431 17.49359 1456 ft 144 kts 185°
2026-04-22 17:47 52.00437 17.49337 1471 ft 142 kts 186°
2026-04-22 17:47 51.99473 17.49283 1521 ft 139 kts 187°
2026-04-22 17:48 51.98831 17.49230 1565 ft 137 kts 188°
2026-04-22 17:48 51.97684 17.48671 1697 ft 123 kts 227°
2026-04-22 17:48 51.97240 17.47591 1757 ft 112 kts 263°
2026-04-22 17:48 51.97253 17.46324 1704 ft 114 kts 287°
2026-04-22 17:49 51.97429 17.45060 1664 ft 116 kts 291°
2026-04-22 17:49 51.97628 17.43812 1735 ft 113 kts 286°
2026-04-22 17:49 51.97687 17.42518 1660 ft 120 kts 283°
2026-04-22 17:49 51.97775 17.41186 1657 ft 117 kts 284°
2026-04-22 17:50 51.97906 17.39860 1573 ft 120 kts 287°
2026-04-22 17:50 51.98065 17.38548 1504 ft 119 kts 286°
2026-04-22 17:50 51.98098 17.37230 1485 ft 118 kts 275°
2026-04-22 17:50 51.98046 17.35904 1449 ft 118 kts 277°
2026-04-22 17:51 51.98028 17.34593 1458 ft 115 kts 276°
2026-04-22 17:51 51.98049 17.33291 1449 ft 116 kts 278°
2026-04-22 17:51 51.98097 17.31982 1471 ft 115 kts 280°
2026-04-22 17:51 51.98164 17.30695 1495 ft 115 kts 281°
2026-04-22 17:52 51.98232 17.29420 1518 ft 115 kts 281°
2026-04-22 17:52 51.98316 17.28128 1523 ft 114 kts 283°
2026-04-22 17:52 51.98407 17.26838 1462 ft 115 kts 284°
2026-04-22 17:52 51.98510 17.25556 1449 ft 114 kts 282°
2026-04-22 17:53 51.98521 17.24254 1436 ft 116 kts 277°
2026-04-22 17:53 51.98523 17.22927 1424 ft 117 kts 277°
2026-04-22 17:53 51.98521 17.21620 1454 ft 116 kts 275°
2026-04-22 17:53 51.98499 17.20347 1528 ft 112 kts 275°
2026-04-22 17:54 51.98494 17.19102 1570 ft 108 kts 277°
2026-04-22 17:54 51.98523 17.17895 1622 ft 107 kts 282°
2026-04-22 17:54 51.98562 17.16682 1698 ft 107 kts 279°
2026-04-22 17:54 51.98468 17.15449 1705 ft 113 kts 270°
2026-04-22 17:55 51.98395 17.14605 1693 ft 116 kts 272°
2026-04-22 17:55 51.98318 17.12813 1629 ft 122 kts 275°
2026-04-22 17:55 51.98283 17.11455 1678 ft 119 kts 276°
2026-04-22 17:55 51.98268 17.10106 1636 ft 122 kts 277°
2026-04-22 17:56 51.98285 17.08722 1545 ft 123 kts 279°
2026-04-22 17:56 51.98347 17.07334 1457 ft 122 kts 281°
2026-04-22 17:56 51.98442 17.05978 1417 ft 119 kts 283°
2026-04-22 17:56 51.98546 17.04653 1388 ft 116 kts 283°
2026-04-22 17:57 51.98665 17.03373 1395 ft 112 kts 285°
2026-04-22 17:57 51.98859 17.02150 1437 ft 109 kts 290°
2026-04-22 17:57 51.99084 17.00989 1454 ft 108 kts 292°
2026-04-22 17:57 51.99264 16.99802 1502 ft 107 kts 288°
2026-04-22 17:58 51.99436 16.98613 1495 ft 109 kts 290°
2026-04-22 17:58 51.99664 16.97457 1552 ft 106 kts 294°
2026-04-22 17:58 51.99902 16.96299 1489 ft 111 kts 292°
2026-04-22 17:58 52.00155 16.95114 1465 ft 112 kts 293°
2026-04-22 17:59 52.00329 16.94325 1457 ft 113 kts 293°
2026-04-22 17:59 52.00624 16.93140 1430 ft 112 kts 296°
2026-04-22 17:59 52.00966 16.92029 1472 ft 108 kts 298°
2026-04-22 17:59 52.01421 16.90592 1495 ft 109 kts 299°
2026-04-22 18:00 52.01647 16.89847 1486 ft 110 kts 299°
2026-04-22 18:00 52.02135 16.88385 1492 ft 109 kts 301°
2026-04-22 18:00 52.02369 16.87668 1502 ft 109 kts 301°
2026-04-22 18:00 52.02715 16.86570 1511 ft 109 kts 301°
2026-04-22 18:01 52.03049 16.85477 1599 ft 107 kts 300°
2026-04-22 18:01 52.03398 16.84367 1566 ft 113 kts 300°
2026-04-22 18:01 52.03788 16.83263 1575 ft 114 kts 302°
2026-04-22 18:01 52.04219 16.82159 1501 ft 116 kts 306°
2026-04-22 18:02 52.04668 16.81073 1451 ft 115 kts 307°
2026-04-22 18:02 52.05053 16.79995 1539 ft 107 kts 298°
2026-04-22 18:02 52.05366 16.78865 1518 ft 111 kts 300°
2026-04-22 18:02 52.05712 16.77744 1526 ft 111 kts 301°
2026-04-22 18:03 52.06031 16.76609 1570 ft 110 kts 296°
2026-04-22 18:03 52.06193 16.75395 1602 ft 110 kts 287°
2026-04-22 18:03 52.06396 16.74190 1536 ft 112 kts 291°
2026-04-22 18:03 52.06594 16.72980 1529 ft 110 kts 290°
2026-04-22 18:04 52.06776 16.71785 1585 ft 108 kts 289°
2026-04-22 18:04 52.06975 16.70630 1659 ft 104 kts 295°
2026-04-22 18:04 52.07213 16.69463 1626 ft 109 kts 294°
2026-04-22 18:04 52.07476 16.68296 1640 ft 110 kts 296°
2026-04-22 18:05 52.07761 16.67146 1633 ft 110 kts 298°
2026-04-22 18:05 52.08067 16.65999 1601 ft 111 kts 299°
2026-04-22 18:05 52.08472 16.64954 1583 ft 108 kts 320°
2026-04-22 18:05 52.09146 16.64421 1552 ft 110 kts 342°
2026-04-22 18:06 52.09897 16.64161 1522 ft 111 kts 347°
2026-04-22 18:06 52.10656 16.63983 1512 ft 111 kts 348°
2026-04-22 18:06 52.11440 16.63872 1494 ft 113 kts 352°
2026-04-22 18:06 52.12211 16.63775 1513 ft 110 kts 351°
2026-04-22 18:07 52.12956 16.63614 1542 ft 107 kts 348°
2026-04-22 18:07 52.13701 16.63462 1507 ft 108 kts 349°
2026-04-22 18:07 52.14456 16.63341 1499 ft 109 kts 349°
2026-04-22 18:07 52.15210 16.63227 1481 ft 109 kts 349°
2026-04-22 18:08 52.15959 16.63097 1479 ft 107 kts 348°
2026-04-22 18:08 52.16685 16.62933 1502 ft 104 kts 347°
2026-04-22 18:08 52.17400 16.62739 1544 ft 104 kts 346°
2026-04-22 18:08 52.18101 16.62497 1586 ft 104 kts 345°
2026-04-22 18:09 52.18812 16.62253 1624 ft 104 kts 345°
2026-04-22 18:09 52.19519 16.62022 1646 ft 105 kts 346°
2026-04-22 18:09 52.20252 16.61803 1640 ft 108 kts 345°
2026-04-22 18:09 52.20988 16.61572 1642 ft 110 kts 344°
2026-04-22 18:10 52.21725 16.61284 1680 ft 108 kts 342°
2026-04-22 18:10 52.22461 16.60999 1694 ft 109 kts 343°
2026-04-22 18:10 52.23191 16.60712 1703 ft 107 kts 342°
2026-04-22 18:10 52.23926 16.60415 1656 ft 110 kts 343°
2026-04-22 18:11 52.24675 16.60135 1624 ft 110 kts 345°
2026-04-22 18:11 52.25422 16.59875 1602 ft 109 kts 346°
2026-04-22 18:11 52.26161 16.59633 1603 ft 107 kts 347°
2026-04-22 18:11 52.26892 16.59394 1588 ft 107 kts 347°
2026-04-22 18:12 52.27628 16.59166 1557 ft 108 kts 347°
2026-04-22 18:12 52.28373 16.58954 1520 ft 109 kts 348°
2026-04-22 18:12 52.28869 16.58869 1492 ft 110 kts 354°
2026-04-22 18:12 52.29906 16.59050 1480 ft 112 kts
2026-04-22 18:13 52.30678 16.59298 1454 ft 115 kts
2026-04-22 18:13 52.31464 16.59590 1422 ft 117 kts
2026-04-22 18:13 52.32245 16.59903 1449 ft 114 kts
2026-04-22 18:13 52.33007 16.60200 1489 ft 112 kts
2026-04-22 18:14 52.33765 16.60486 1494 ft 112 kts
2026-04-22 18:14 52.34533 16.60744 1478 ft 113 kts
2026-04-22 18:14 52.35302 16.60982 1489 ft 111 kts
2026-04-22 18:14 52.36060 16.61182 1473 ft 112 kts
2026-04-22 18:15 52.36832 16.61367 1462 ft 111 kts
2026-04-22 18:15 52.37573 16.61650 1473 ft 113 kts 22°
2026-04-22 18:15 52.38125 16.62618 1497 ft 124 kts 56°
2026-04-22 18:15 52.38372 16.64036 1433 ft 136 kts 71°
2026-04-22 18:16 52.38552 16.65577 1356 ft 137 kts 71°
2026-04-22 18:16 52.38709 16.67110 1331 ft 135 kts 71°
2026-04-22 18:16 52.38854 16.68599 1373 ft 132 kts 73°
2026-04-22 18:16 52.39012 16.70076 1437 ft 126 kts 68°
2026-04-22 18:17 52.39257 16.71446 1483 ft 126 kts 65°
2026-04-22 18:17 52.39513 16.72839 1504 ft 129 kts 65°
2026-04-22 18:17 52.39788 16.74276 1466 ft 134 kts 64°
2026-04-22 18:17 52.40036 16.75760 1438 ft 134 kts 69°
2026-04-22 18:18 52.40299 16.77178 1426 ft 131 kts 65°
2026-04-22 18:18 52.40553 16.78608 1401 ft 132 kts 67°
2026-04-22 18:18 52.40705 16.80101 1401 ft 131 kts 76°
2026-04-22 18:18 52.40674 16.81537 1271 ft 123 kts 90°
2026-04-22 18:19 52.40490 16.82854 1099 ft 116 kts 99°
2026-04-22 18:19 52.40259 16.84087 943 ft 111 kts 105°
2026-04-22 18:19 52.40176 16.85320 939 ft 105 kts 66°
2026-04-22 18:19 52.40630 16.85961 855 ft 87 kts
2026-04-22 18:20 52.41177 16.86083 706 ft 67 kts 340°
2026-04-22 18:20 52.41487 16.85567 548 ft 66 kts 304°
2026-04-22 18:20 52.41657 16.84902 422 ft 64 kts 289°
2026-04-22 18:20 52.41798 16.84186 335 ft 65 kts 290°
2026-04-22 18:21 52.41923 16.83551 290 ft 50 kts 291°
2026-04-22 18:21 52.42005 16.83124 280 ft 27 kts 290°
2026-04-22 18:21 52.41958 16.82964 281 ft 13 kts 194°
2026-04-22 18:21 52.41798 16.82891 282 ft 32 kts 197°
2026-04-22 18:22 52.41655 16.82918 282 ft 18 kts 98°
2026-04-22 18:22 52.41636 16.83106 282 ft 15 kts 102°
2026-04-22 18:22 52.41610 16.83259 282 ft 19 kts 101°
2026-04-22 18:22 52.41574 16.83529 282 ft 26 kts 98°
2026-04-22 18:23 52.41541 16.83731 282 ft 12 kts 199°
2026-04-22 18:23 52.41522 16.83762 282 ft 0 kts